Klawock, AK

3:23 AM AKST on December 16, 2017 (GMT -0900)
Klawock

Weather History for PAKW - January, 2013

Change the Weather History Date:

Saturday, January 12, 2013

  Actual Average Record
Temperature  
Mean Temperature 35 °F -  
Max Temperature 37 °F 36 °F 48 °F (2009)
Min Temperature 33 °F 29 °F 8 °F (2005)
Degree Days  
Heating Degree Days 30    
Moisture  
Dew Point 32 °F    
Average Humidity 89    
Maximum Humidity 93    
Minimum Humidity 81    
Precipitation  
Precipitation 0.00 in - - ()
Sea Level Pressure  
Sea Level Pressure 30.36 in    
Wind  
Wind Speed 6 mph (NE)    
Max Wind Speed 10 mph    
Max Gust Speed -    
Visibility 10 miles    
Events      
Averages and records for this station are not official NWS values.
T = Trace of Precipitation, MM = Missing Value Source: NWS Daily Summary

Daily Weather History Graph

Daily Weather History Graph

Search for Another Location

Airport or City:

Trip Planner

Search our weather history database for the weather conditions in past years. The results will help you decide how hot, cold, wet, or windy it might be!

Date:

Astronomy

Jan. 12, 2013 Rise Set
Actual Time 8:13 AM AKST 3:48 PM AKST
Civil Twilight 7:29 AM AKST 4:32 PM AKST
Nautical Twilight 6:42 AM AKST 5:19 PM AKST
Astronomical Twilight 5:58 AM AKST 6:04 PM AKST
Moon 8:16 AM AKST (1/12) 5:50 PM AKST (1/12)
Length of Visible Light 9h 03m
Length of Day
7h 34m
New Moon, 2% of the Moon is Illuminated
Jan 12
New Moon
Jan 18
First Quarter
Jan 26
Full
Feb 3
Last Quarter
Feb 9
New

Hourly Weather History & Observations

Time (AKST) Temp. Windchill Dew Point Humidity Pressure Visibility Wind Dir Wind Speed Gust Speed Precip Events Conditions
12:04 AM 33.8 °F 25.8 °F 30.2 °F 87% 30.26 in 10.0 mi NNE 10.4 mph - N/A   Overcast
12:53 AM 34.0 °F 28.0 °F 30.9 °F 89% 30.27 in 10.0 mi NE 6.9 mph - N/A   Overcast
1:22 AM 35.6 °F 32.8 °F 30.2 °F 81% 30.27 in 10.0 mi NE 3.5 mph - N/A   Overcast
1:53 AM 35.1 °F 30.1 °F 30.9 °F 85% 30.27 in 10.0 mi NE 5.8 mph - N/A   Overcast
3:53 AM 35.1 °F 31.0 °F 32.0 °F 89% 30.30 in 10.0 mi NNE 4.6 mph - N/A   Overcast
4:53 AM 35.1 °F 31.0 °F 30.9 °F 85% 30.32 in 10.0 mi NE 4.6 mph - N/A   Overcast
5:53 AM 34.0 °F 29.8 °F 30.9 °F 89% 30.34 in 10.0 mi NNE 4.6 mph - N/A   Overcast
6:31 AM 33.8 °F 29.6 °F 30.2 °F 87% 30.34 in 10.0 mi NE 4.6 mph - N/A   Overcast
6:53 AM 34.0 °F 31.0 °F 30.9 °F 89% 30.35 in 10.0 mi NNE 3.5 mph - N/A   Overcast
7:53 AM 33.1 °F 28.7 °F 30.9 °F 92% 30.35 in 10.0 mi ENE 4.6 mph - N/A   Clear
8:53 AM 33.1 °F 30.0 °F 30.9 °F 92% 30.36 in 10.0 mi NE 3.5 mph - N/A   Clear
9:53 AM 35.1 °F 30.1 °F 30.9 °F 85% 30.39 in 10.0 mi NE 5.8 mph - N/A   Clear
10:53 AM 35.1 °F 29.3 °F 32.0 °F 89% 30.39 in 10.0 mi NNE 6.9 mph - N/A   Clear
11:21 AM 35.6 °F 30.7 °F 32.0 °F 87% 30.39 in 10.0 mi NE 5.8 mph - N/A   Mostly Cloudy
11:53 AM 36.0 °F 32.1 °F 32.0 °F 86% 30.39 in 10.0 mi NE 4.6 mph - N/A   Overcast
12:53 PM 37.0 °F 30.4 °F 33.1 °F 86% 30.38 in 10.0 mi NNE 9.2 mph - N/A   Overcast
1:53 PM 37.0 °F 32.4 °F 33.1 °F 86% 30.38 in 10.0 mi NE 5.8 mph - N/A   Overcast
2:53 PM 36.0 °F 30.3 °F 33.1 °F 89% 30.40 in 10.0 mi NNE 6.9 mph - N/A   Overcast
3:17 PM 35.6 °F 32.8 °F 33.8 °F 93% 30.39 in 10.0 mi NE 3.5 mph - N/A   Overcast
4:53 PM 35.1 °F 30.1 °F 32.0 °F 89% 30.40 in 10.0 mi NE 5.8 mph - N/A   Mostly Cloudy
5:31 PM 35.6 °F 30.7 °F 33.8 °F 93% 30.39 in 10.0 mi NE 5.8 mph - N/A   Mostly Cloudy
5:53 PM 35.1 °F 30.1 °F 33.1 °F 92% 30.39 in 10.0 mi Variable 5.8 mph - N/A   Overcast
6:53 PM 35.1 °F 32.2 °F 33.1 °F 92% 30.38 in 10.0 mi Variable 3.5 mph - N/A   Overcast
7:53 PM 36.0 °F 33.3 °F 33.1 °F 89% 30.39 in 10.0 mi NE 3.5 mph - N/A   Overcast
8:53 PM 36.0 °F 30.3 °F 33.1 °F 89% 30.37 in 10.0 mi NE 6.9 mph - N/A   Overcast
9:53 PM 36.0 °F - 33.1 °F 89% 30.40 in 10.0 mi Calm Calm - N/A   Overcast
10:53 PM 36.0 °F 32.1 °F 34.0 °F 93% 30.39 in 10.0 mi Variable 4.6 mph - N/A   Overcast
11:53 PM 36.0 °F 31.1 °F 34.0 °F 93% 30.38 in 10.0 mi NE 5.8 mph - N/A   Overcast